COSMOS 1275 DEB, 13817

Orbit data source: Space-Track

COSMOS 1275 DEB, 13817 is space debris in LEO originally from a launch on Thu, 04 Jun 1981 UTC launched from the Plesetsk Missile And Space Complex (PKMTR). Debris objects in space refer to the collection of defunct objects orbiting the Earth. Examples of debris include non-operational satellites, rocket bodies, and fragments generated from explosions, collisions, or faulty payload assembly.

Loading next visibility...
Identifier
13817, 1981-053HM
Orbit
LEO
Country
Flag of CISCIS
Related business
Manufacturer
Unknown
Mission
Spacecraft
Bus & Motor
Unknown
Mass
Unknown
Launch date (UTC)
1981-06-04 (45 years ago)
Launch vehicle
Unknown
Launch site
Plesetsk Missile And Space Complex (PKMTR)
Object type
Payload
Rocket body
Debris
Shape & HBR
Unknown shape, 0.1 m
Radar Cross Section
Small (<0.1 m²)

Expand to show TLE details & history
Last TLE update: 19 hours ago

TLE from 19 hours ago
0 COSMOS 1275 DEB
1 13817U 81053HM  26048.31015682  .00001659  00000-0  97216-3 0  9992
2 13817  82.9446  11.1305 0022780   1.3420 358.7811 14.07573511239107
Epoch: 2026-02-17T07:26Z
TLE epoch observation values (Epoch: 2026-02-17T07:26:37.549Z)
Latitude
-0.00003°
Longitude
112.18205°
Altitude
854.127 km
Speed
7.434 km/s
True Right ascension
00h 44m 31s
True Declination
0° 00' 00"
Sunlit
Object was in daylight at epoch
Visualization orbit readout
Latitude
Unknown
Longitude
Unknown
Altitude
Unknown
Speed
Unknown
Apparent Right ascension
Unknown
Apparent Declination
Unknown
Sunlit
N/A
Visualization observer readout
Local Sidereal Time
05:06:14
Azimuth
Unknown
Elevation
Unknown
Doppler factor
Unknown
Orbital elements
Apogee altitude
881.29 km
Perigee altitude
848.291 km
Semi-major axis
7,242.928 km
Eccentricity
0.00228
Inclination
82.9446°
RAAN
11.1305°
Arg. of periapsis
1.342°
True anomaly
358.77553°
Mean anomaly
358.7811°
Eccentric anomaly
358.77832°
Mean motion
3.52105 °/min
Orbital period
102.24 mins
BSTAR
0.00097216
Loading maneuver chart data...
Computing Atmospheric mass density...
Loading historical data...
Loading historical data...
Loading historical data...
Loading historical data...
Loading historical data...
Loading historical data...
Loading historical data...

Documentation

Showing up to 5 results
|